M7VJL-13 Weather Reports


time (UTC)temp
C
wind
direction
speed
KPH
gust
KPH
rain 1hr
cm
rain 24hr
cm
rain mn
cm
humidity
%
barometer
mb
20260508084520 14 172 1.6 8.0 0.00 0.00 0.00 66 1017.1
20260508083025 13 178 1.6 6.4 0.00 0.00 0.00 71 1017.0
20260508081510 12 167 0.0 6.4 0.00 0.00 0.00 74 1017.1
20260508080015 12 360 1.6 11.3 0.00 0.00 0.00 75 1017.0
20260508074519 12 169 1.6 9.7 0.00 0.00 0.00 78 1016.8
20260508073022 12 100 3.2 9.7 0.00 0.00 0.00 80 1016.6
20260508071524 11 360 3.2 14.5 0.00 0.00 0.00 85 1016.6
20260508070013 10 150 0.0 8.0 0.00 0.00 0.00 88 1016.6
20260508064516 9 181 0.0 6.4 0.00 0.00 0.00 89 1016.5
20260508063020 8 186 1.6 9.7 0.00 0.00 0.00 90 1016.4
20260508061524 8 173 0.0 1.6 0.00 0.00 0.00 91 1016.3
20260508060025 8 174 0.0 8.0 0.00 0.00 0.00 91 1016.3
20260508054511 7 180 0.0 4.8 0.00 0.00 0.00 91 1016.4
20260508053032 7 184 0.0 3.2 0.00 0.00 0.00 91 1016.3
20260508051522 7 167 1.6 8.0 0.00 0.00 0.00 91 1016.3
20260508050005 7 155 0.0 4.8 0.00 0.00 0.00 91 1016.2
20260508044508 7 143 0.0 8.0 0.00 0.00 0.00 91 1016.1
20260508043013 7 178 0.0 3.2 0.00 0.00 0.00 90 1016.1
20260508041536 7 179 0.0 4.8 0.00 0.00 0.00 90 1016.1
20260508040006 7 179 1.6 8.0 0.00 0.00 0.00 90 1016.1
20260508034509 7 190 0.0 4.8 0.00 0.00 0.00 90 1016.1
20260508033016 7 190 1.6 4.8 0.00 0.00 0.00 90 1016.2
20260508031518 7 166 0.0 8.0 0.00 0.00 0.00 90 1016.1
20260508030030 7 178 1.6 6.4 0.00 0.00 0.00 90 1016.1
20260508024508 7 172 0.0 1.6 0.00 0.00 0.00 90 1016.1
20260508023009 7 172 0.0 4.8 0.00 0.00 0.00 90 1016.1
20260508021515 7 171 0.0 3.2 0.00 0.00 0.00 90 1016.1
20260508020025 7 171 0.0 3.2 0.00 0.00 0.00 89 1016.1
20260508014522 7 170 0.0 3.2 0.00 0.00 0.00 89 1015.9
20260508013008 7 170 0.0 3.2 0.00 0.00 0.00 89 1016.0
20260508011514 7 170 0.0 3.2 0.00 0.00 0.00 88 1016.0
20260508010016 7 165 0.0 6.4 0.00 0.00 0.00 88 1015.8
20260508004520 7 167 0.0 4.8 0.00 0.00 0.00 87 1016.0
20260508003022 7 171 0.0 8.0 0.00 0.00 0.00 87 1016.1
20260508001508 8 146 0.0 8.0 0.00 0.00 0.00 86 1016.2
20260508000013 8 169 0.0 6.4 0.00 0.00 0.00 85 1016.2
20260507234515 8 172 0.0 9.7 0.00 0.00 0.00 85 1016.2
20260507233037 8 177 1.6 9.7 0.00 0.00 0.00 84 1016.2
20260507231530 9 175 3.2 8.0 0.00 0.00 0.00 83 1016.3
20260507230008 9 196 0.0 8.0 0.00 0.00 0.00 82 1016.3
20260507224511 9 183 1.6 9.7 0.00 0.00 0.00 82 1016.5
20260507223003 9 178 1.6 11.3 0.00 0.00 0.00 81 1016.5
20260507221503 10 181 1.6 11.3 0.00 0.00 0.00 81 1016.5
20260507220008 10 181 1.6 9.7 0.00 0.00 0.00 80 1016.5
20260507213015 10 176 1.6 6.4 0.00 0.00 0.00 78 1016.3
20260507211503 10 156 0.0 8.0 0.00 0.00 0.00 77 1016.2
20260507210007 10 194 0.0 8.0 0.00 0.00 0.00 77 1016.2
20260507204509 11 179 1.6 8.0 0.00 0.00 0.00 76 1016.2
20260507201514 11 182 1.6 6.4 0.00 0.00 0.00 75 1015.8
20260507200010 11 111 0.0 9.7 0.00 0.00 0.00 74 1015.6
20260507194509 11 157 0.0 8.0 0.00 0.00 0.00 72 1015.5
20260507193014 12 193 0.0 9.7 0.00 0.00 0.00 71 1015.4
20260507190010 13 150 3.2 14.5 0.00 0.00 0.00 67 1015.2
20260507184505 13 178 1.6 6.4 0.00 0.00 0.00 64 1015.2
20260507183006 13 200 1.6 9.7 0.00 0.00 0.00 61 1015.2
20260507181508 13 118 3.2 11.3 0.00 0.00 0.00 60 1015.0
20260507180013 13 127 0.0 9.7 0.00 0.00 0.00 61 1015.0
20260507173006 13 181 1.6 14.5 0.00 0.00 0.00 61 1015.0
20260507171510 13 184 1.6 12.9 0.00 0.00 0.00 61 1015.0
20260507170013 13 160 1.6 14.5 0.00 0.00 0.00 61 1015.1
20260507163018 13 179 3.2 12.9 0.00 0.00 0.00 61 1015.1
20260507161505 13 188 3.2 14.5 0.00 0.00 0.00 60 1015.1
20260507160008 13 179 1.6 11.3 0.00 0.00 0.00 60 1015.1
20260507154514 13 175 3.2 11.3 0.00 0.00 0.00 59 1015.2
20260507153017 13 165 1.6 9.7 0.00 0.00 0.00 61 1015.3
20260507151516 13 161 3.2 16.1 0.00 0.00 0.00 60 1015.4
20260507150009 13 200 1.6 8.0 0.00 0.00 0.00 60 1015.4
20260507144514 13 114 1.6 8.0 0.00 0.00 0.00 60 1015.3
20260507143021 13 167 1.6 9.7 0.00 0.00 0.00 59 1015.4
20260507141517 13 163 3.2 11.3 0.00 0.00 0.00 56 1015.5
20260507140020 13 131 3.2 8.0 0.00 0.00 0.00 61 1015.6
20260507133003 13 360 3.2 12.9 0.00 0.00 0.00 58 1015.6
20260507131506 13 360 3.2 11.3 0.00 0.00 0.00 61 1015.7
20260507124515 13 181 4.8 8.0 0.00 0.00 0.00 61 1015.7
20260507123013 13 360 0.0 8.0 0.00 0.00 0.00 62 1015.7
20260507120012 13 360 0.0 6.4 0.00 0.00 0.00 62 1015.9
20260507114505 13 184 1.6 9.7 0.00 0.00 0.00 61 1015.9
20260507110022 14 187 1.6 8.0 0.00 0.00 0.00 60 1016.0
20260507104504 14 184 3.2 11.3 0.00 0.00 0.00 61 1016.0
20260507103009 13 90 1.6 12.9 0.00 0.00 0.00 63 1016.2
20260507101510 13 355 0.0 4.8 0.00 0.00 0.00 67 1016.3
20260507100025 13 70 1.6 8.0 0.00 0.00 0.00 66 1016.3
20260507094521 12 183 1.6 8.0 0.00 0.00 0.00 68 1016.4
20260507093003 12 186 1.6 11.3 0.00 0.00 0.00 68 1016.3
20260507091509 12 163 0.0 8.0 0.00 0.00 0.00 72 1016.3
20260507090014 11 155 0.0 6.4 0.00 0.00 0.00 71 1016.3